Time,TemperatureF,DewpointF,PressureIn,WindDirection,WindDirectionDegrees,WindSpeedMPH,WindSpeedGustMPH,Humidity,HourlyPrecipIn,Conditions,Clouds,dailyrainin,SoftwareType,DateUTC
2013-06-07 00:00:00,62.9,53.7,29.83,NNE,31,3.5,3.5,72,0.00,CLR,,0.00,WeatherDisplay:10.37,2013-06-07 05:00:00,
2013-06-07 00:05:00,62.7,53.9,29.83,NNE,12,9.2,9.2,73,0.00,CLR,,0.00,WeatherDisplay:10.37,2013-06-07 05:05:00,
2013-06-07 00:10:00,62.6,53.8,29.83,NNE,22,3.0,3.0,73,0.00,CLR,,0.00,WeatherDisplay:10.37,2013-06-07 05:10:00,
2013-06-07 00:15:00,62.5,53.7,29.83,NE,34,0.0,0.0,73,0.00,CLR,,0.00,WeatherDisplay:10.37,2013-06-07 05:15:00,
2013-06-07 00:20:00,62.4,53.6,29.83,NNE,31,4.0,4.0,73,0.00,CLR,,0.00,WeatherDisplay:10.37,2013-06-07 05:20:00,
2013-06-07 00:25:00,62.3,53.5,29.83,NNE,21,3.5,0.0,73,0.00,CLR,,0.00,WeatherDisplay:10.37,2013-06-07 05:25:00,
2013-06-07 00:30:00,62.2,53.8,29.83,NNE,21,1.2,0.0,74,0.00,CLR,,0.00,WeatherDisplay:10.37,2013-06-07 05:30:00,
2013-06-07 00:35:00,62.1,53.7,29.83,North,9,6.9,6.9,74,0.00,CLR,,0.00,WeatherDisplay:10.37,2013-06-07 05:35:00,
2013-06-07 00:41:00,62.1,53.7,29.83,NNE,28,10.4,10.4,74,0.00,CLR,,0.00,WeatherDisplay:10.37,2013-06-07 05:41:00,
2013-06-07 00:46:00,61.9,53.5,29.83,NNE,22,5.8,5.8,74,0.00,CLR,,0.00,WeatherDisplay:10.37,2013-06-07 05:46:00,
2013-06-07 00:52:00,61.8,53.8,29.83,NNE,23,3.5,3.5,75,0.00,CLR,,0.00,WeatherDisplay:10.37,2013-06-07 05:52:00,
2013-06-07 00:57:00,61.8,53.8,29.83,NNE,21,4.6,4.6,75,0.00,CLR,,0.00,WeatherDisplay:10.37,2013-06-07 05:57:00,
2013-06-07 01:02:00,61.7,53.7,29.83,NE,37,3.5,3.5,75,0.00,CLR,,0.00,WeatherDisplay:10.37,2013-06-07 06:02:00,
2013-06-07 01:07:00,61.6,53.6,29.83,NNE,14,4.6,4.6,75,0.00,CLR,,0.00,WeatherDisplay:10.37,2013-06-07 06:07:00,
2013-06-07 01:12:00,61.5,53.9,29.83,NNE,25,1.2,1.2,76,0.00,CLR,,0.00,WeatherDisplay:10.37,2013-06-07 06:12:00,
2013-06-07 01:17:00,61.4,53.8,29.82,NE,55,2.0,2.0,76,0.00,CLR,,0.00,WeatherDisplay:10.37,2013-06-07 06:17:00,
2013-06-07 01:22:00,61.3,53.7,29.83,NNE,24,5.0,5.0,76,0.00,CLR,,0.00,WeatherDisplay:10.37,2013-06-07 06:22:00,
2013-06-07 01:27:00,61.1,53.5,29.83,NE,36,2.3,2.3,76,0.00,CLR,,0.00,WeatherDisplay:10.37,2013-06-07 06:27:00,
2013-06-07 01:33:00,60.9,53.6,29.82,NNE,29,0.0,0.0,77,0.00,CLR,,0.00,WeatherDisplay:10.37,2013-06-07 06:33:00,
2013-06-07 01:38:00,60.8,53.5,29.82,NNE,15,0.0,0.0,77,0.00,CLR,,0.00,WeatherDisplay:10.37,2013-06-07 06:38:00,
2013-06-07 01:43:00,60.8,53.5,29.82,North,360,4.6,4.6,77,0.00,CLR,,0.00,WeatherDisplay:10.37,2013-06-07 06:43:00,
2013-06-07 01:48:00,60.6,53.7,29.82,NNE,26,3.5,3.5,78,0.00,CLR,,0.00,WeatherDisplay:10.37,2013-06-07 06:48:00,
2013-06-07 01:53:00,60.5,53.6,29.82,NNE,18,0.0,0.0,78,0.00,CLR,,0.00,WeatherDisplay:10.37,2013-06-07 06:53:00,
2013-06-07 01:59:00,60.4,53.5,29.82,NNE,18,1.2,1.2,78,0.00,CLR,,0.00,WeatherDisplay:10.37,2013-06-07 06:59:00,
2013-06-07 02:04:00,60.4,53.5,29.82,NNE,24,2.3,2.3,78,0.00,CLR,,0.00,WeatherDisplay:10.37,2013-06-07 07:04:00,
2013-06-07 02:09:00,60.3,53.4,29.82,NNE,33,3.0,3.0,78,0.00,CLR,,0.00,WeatherDisplay:10.37,2013-06-07 07:09:00,
2013-06-07 02:14:00,60.2,53.3,29.82,NNE,18,1.2,0.0,78,0.00,CLR,,0.00,WeatherDisplay:10.37,2013-06-07 07:14:00,
2013-06-07 02:19:00,60.1,53.6,29.82,NNE,12,0.0,0.0,79,0.00,CLR,,0.00,WeatherDisplay:10.37,2013-06-07 07:19:00,
2013-06-07 02:24:00,60.1,53.6,29.82,NNE,19,4.6,4.6,79,0.00,CLR,,0.00,WeatherDisplay:10.37,2013-06-07 07:24:00,
2013-06-07 02:30:00,60.0,53.5,29.81,NNE,13,0.0,0.0,79,0.00,CLR,,0.00,WeatherDisplay:10.37,2013-06-07 07:30:00,
2013-06-07 02:35:00,59.8,53.3,29.81,NNE,15,5.0,5.0,79,0.00,CLR,,0.00,WeatherDisplay:10.37,2013-06-07 07:35:00,
2013-06-07 02:40:00,59.6,53.1,29.81,NE,38,2.3,0.0,79,0.00,CLR,,0.00,WeatherDisplay:10.37,2013-06-07 07:40:00,
2013-06-07 02:46:00,59.4,52.9,29.81,NNE,22,3.5,3.5,79,0.00,CLR,,0.00,WeatherDisplay:10.37,2013-06-07 07:46:00,
2013-06-07 02:51:00,59.3,52.8,29.82,NNE,22,0.0,0.4,79,0.00,CLR,,0.00,WeatherDisplay:10.37,2013-06-07 07:51:00,
2013-06-07 02:56:00,59.2,52.7,29.81,NNE,23,1.2,0.0,79,0.00,CLR,,0.00,WeatherDisplay:10.37,2013-06-07 07:56:00,
2013-06-07 03:02:00,59.0,52.5,29.81,NNE,20,3.5,3.5,79,0.00,CLR,,0.00,WeatherDisplay:10.37,2013-06-07 08:02:00,
2013-06-07 03:07:00,59.0,52.5,29.81,NNE,26,3.5,3.5,79,0.00,CLR,,0.00,WeatherDisplay:10.37,2013-06-07 08:07:00,
2013-06-07 03:12:00,59.0,52.8,29.81,NNE,28,6.9,6.9,80,0.00,CLR,,0.00,WeatherDisplay:10.37,2013-06-07 08:12:00,
2013-06-07 03:17:00,59.0,52.8,29.81,NNE,24,0.0,0.0,80,0.00,CLR,,0.00,WeatherDisplay:10.37,2013-06-07 08:17:00,
2013-06-07 03:22:00,59.0,52.8,29.81,NNE,22,3.5,3.5,80,0.00,CLR,,0.00,WeatherDisplay:10.37,2013-06-07 08:22:00,
2013-06-07 03:27:00,59.0,52.8,29.81,NNE,19,0.0,0.5,80,0.00,CLR,,0.00,WeatherDisplay:10.37,2013-06-07 08:27:00,
2013-06-07 03:32:00,59.0,52.8,29.81,NNE,19,0.0,1.2,80,0.00,CLR,,0.00,WeatherDisplay:10.37,2013-06-07 08:32:00,
2013-06-07 03:37:00,58.9,52.7,29.81,NE,38,3.5,3.5,80,0.00,CLR,,0.00,WeatherDisplay:10.37,2013-06-07 08:37:00,
2013-06-07 03:43:00,58.9,52.7,29.81,NE,36,0.0,0.0,80,0.00,CLR,,0.00,WeatherDisplay:10.37,2013-06-07 08:43:00,
2013-06-07 03:48:00,58.8,53.0,29.81,NE,36,0.0,0.0,81,0.00,CLR,,0.00,WeatherDisplay:10.37,2013-06-07 08:48:00,
2013-06-07 03:53:00,58.9,53.1,29.82,NNE,29,3.0,3.0,81,0.00,CLR,,0.00,WeatherDisplay:10.37,2013-06-07 08:53:00,
2013-06-07 03:58:00,59.0,53.8,29.82,NNE,29,0.0,0.0,83,0.00,CLR,,0.00,WeatherDisplay:10.37,2013-06-07 08:58:00,
2013-06-07 04:03:00,59.0,53.2,29.82,NNE,29,2.3,0.0,81,0.00,CLR,,0.00,WeatherDisplay:10.37,2013-06-07 09:03:00,
2013-06-07 04:08:00,59.0,53.2,29.82,North,360,2.3,2.3,81,0.00,CLR,,0.00,WeatherDisplay:10.37,2013-06-07 09:08:00,
2013-06-07 04:13:00,59.0,53.2,29.82,North,360,0.0,0.0,81,0.00,CLR,,0.00,WeatherDisplay:10.37,2013-06-07 09:13:00,
2013-06-07 04:19:00,59.0,53.2,29.82,NNE,32,0.0,0.0,81,0.00,CLR,,0.00,WeatherDisplay:10.37,2013-06-07 09:19:00,
2013-06-07 04:24:00,59.0,53.2,29.82,NNE,24,0.0,0.0,81,0.00,CLR,,0.00,WeatherDisplay:10.37,2013-06-07 09:24:00,
2013-06-07 04:29:00,59.0,53.2,29.82,NNE,24,0.0,0.0,81,0.00,CLR,,0.00,WeatherDisplay:10.37,2013-06-07 09:29:00,
2013-06-07 04:34:00,59.0,53.2,29.82,NNE,24,0.0,0.0,81,0.00,CLR,,0.00,WeatherDisplay:10.37,2013-06-07 09:34:00,
2013-06-07 04:39:00,59.0,53.2,29.82,NNE,24,0.0,0.0,81,0.00,CLR,,0.00,WeatherDisplay:10.37,2013-06-07 09:39:00,
2013-06-07 04:45:00,59.0,53.2,29.82,North,9,3.5,3.5,81,0.00,CLR,,0.00,WeatherDisplay:10.37,2013-06-07 09:45:00,
2013-06-07 04:50:00,59.0,53.2,29.82,North,9,0.0,0.0,81,0.00,CLR,,0.00,WeatherDisplay:10.37,2013-06-07 09:50:00,
2013-06-07 04:55:00,59.0,53.2,29.82,North,9,1.2,1.2,81,0.00,CLR,,0.00,WeatherDisplay:10.37,2013-06-07 09:55:00,
2013-06-07 05:00:00,59.0,53.2,29.82,NNE,25,5.8,5.8,81,0.00,CLR,,0.00,WeatherDisplay:10.37,2013-06-07 10:00:00,
2013-06-07 05:05:00,59.0,53.2,29.82,NNE,24,0.0,0.0,81,0.00,CLR,,0.00,WeatherDisplay:10.37,2013-06-07 10:05:00,
2013-06-07 05:10:00,58.9,53.4,29.82,NNE,19,0.0,0.0,82,0.00,CLR,,0.00,WeatherDisplay:10.37,2013-06-07 10:10:00,
2013-06-07 05:15:00,58.9,53.4,29.82,NNE,18,3.5,3.5,82,0.00,CLR,,0.00,WeatherDisplay:10.37,2013-06-07 10:15:00,
2013-06-07 05:21:00,59.0,53.5,29.82,North,9,3.5,3.5,82,0.00,CLR,,0.00,WeatherDisplay:10.37,2013-06-07 10:21:00,
2013-06-07 05:26:00,59.0,53.5,29.82,North,9,3.5,3.5,82,0.00,CLR,,0.00,WeatherDisplay:10.37,2013-06-07 10:26:00,
2013-06-07 05:31:00,58.8,53.3,29.83,NNE,17,4.6,4.6,82,0.00,CLR,,0.00,WeatherDisplay:10.37,2013-06-07 10:31:00,
2013-06-07 05:36:00,58.7,53.5,29.83,NE,38,7.0,7.0,83,0.00,CLR,,0.00,WeatherDisplay:10.37,2013-06-07 10:36:00,
2013-06-07 05:41:00,58.7,53.5,29.83,NNE,29,3.5,3.5,83,0.00,CLR,,0.00,WeatherDisplay:10.37,2013-06-07 10:41:00,
2013-06-07 05:47:00,58.7,53.5,29.83,NNE,13,1.0,0.0,83,0.00,CLR,,0.00,WeatherDisplay:10.37,2013-06-07 10:47:00,
2013-06-07 05:52:00,58.6,53.5,29.83,NNW,344,0.0,0.0,83,0.00,CLR,,0.00,WeatherDisplay:10.37,2013-06-07 10:52:00,
2013-06-07 05:57:00,58.6,53.5,29.83,NNE,13,3.5,3.5,83,0.00,CLR,,0.00,WeatherDisplay:10.37,2013-06-07 10:57:00,
2013-06-07 06:02:00,58.5,53.4,29.82,NNE,15,5.8,5.8,83,0.00,CLR,,0.00,WeatherDisplay:10.37,2013-06-07 11:02:00,
2013-06-07 06:07:00,58.4,53.3,29.83,North,5,3.5,3.5,83,0.00,CLR,,0.00,WeatherDisplay:10.37,2013-06-07 11:07:00,
2013-06-07 06:12:00,58.5,53.4,29.83,NE,49,0.0,0.0,83,0.00,CLR,,0.00,WeatherDisplay:10.37,2013-06-07 11:12:00,
2013-06-07 06:17:00,58.5,53.4,29.82,NE,50,0.0,0.0,83,0.00,CLR,,0.00,WeatherDisplay:10.37,2013-06-07 11:17:00,
2013-06-07 06:22:00,58.5,53.4,29.82,NNE,29,3.0,3.1,83,0.00,CLR,,0.00,WeatherDisplay:10.37,2013-06-07 11:22:00,
2013-06-07 06:28:00,58.4,53.3,29.83,NNE,33,0.0,0.4,83,0.00,CLR,,0.00,WeatherDisplay:10.37,2013-06-07 11:28:00,
2013-06-07 06:33:00,58.4,53.3,29.83,NNE,19,0.0,0.0,83,0.00,CLR,,0.00,WeatherDisplay:10.37,2013-06-07 11:33:00,
2013-06-07 06:38:00,58.5,53.7,29.83,North,355,2.3,2.3,84,0.00,CLR,,0.00,WeatherDisplay:10.37,2013-06-07 11:38:00,
2013-06-07 06:43:00,58.6,53.8,29.83,NNE,26,4.6,4.6,84,0.00,CLR,,0.00,WeatherDisplay:10.37,2013-06-07 11:43:00,
2013-06-07 06:48:00,58.6,53.8,29.83,North,10,7.0,7.0,84,0.00,CLR,,0.00,WeatherDisplay:10.37,2013-06-07 11:48:00,
2013-06-07 06:53:00,58.6,53.8,29.83,NNE,22,1.0,1.0,84,0.00,CLR,,0.00,WeatherDisplay:10.37,2013-06-07 11:53:00,
2013-06-07 06:59:00,58.6,53.8,29.83,NNE,27,5.8,5.8,84,0.00,CLR,,0.00,WeatherDisplay:10.37,2013-06-07 11:59:00,
2013-06-07 07:04:00,58.7,53.9,29.83,North,5,0.0,0.0,84,0.00,CLR,,0.00,WeatherDisplay:10.37,2013-06-07 12:04:00,
2013-06-07 07:09:00,58.7,53.9,29.83,NNE,22,6.9,6.9,84,0.00,CLR,,0.00,WeatherDisplay:10.37,2013-06-07 12:09:00,
2013-06-07 07:14:00,58.7,53.9,29.83,NNE,25,3.5,0.0,84,0.00,CLR,,0.00,WeatherDisplay:10.37,2013-06-07 12:14:00,
2013-06-07 07:19:00,58.7,53.9,29.83,NE,44,5.8,5.8,84,0.00,CLR,,0.00,WeatherDisplay:10.37,2013-06-07 12:19:00,
2013-06-07 07:25:00,58.8,54.0,29.83,NNE,22,3.5,3.5,84,0.00,CLR,,0.00,WeatherDisplay:10.37,2013-06-07 12:25:00,
2013-06-07 07:30:00,59.0,54.2,29.83,NNE,20,0.0,0.0,84,0.00,CLR,,0.00,WeatherDisplay:10.37,2013-06-07 12:30:00,
2013-06-07 07:35:00,59.0,54.2,29.83,NNE,19,0.0,0.0,84,0.00,CLR,,0.00,WeatherDisplay:10.37,2013-06-07 12:35:00,
2013-06-07 07:40:00,59.0,54.2,29.84,NNE,28,0.0,0.0,84,0.00,CLR,,0.00,WeatherDisplay:10.37,2013-06-07 12:40:00,
2013-06-07 07:45:00,59.0,54.2,29.84,NNE,22,2.0,2.0,84,0.00,CLR,,0.00,WeatherDisplay:10.37,2013-06-07 12:45:00,
2013-06-07 07:50:00,59.0,54.2,29.84,NNE,13,6.9,6.9,84,0.00,CLR,,0.00,WeatherDisplay:10.37,2013-06-07 12:50:00,
2013-06-07 07:55:00,59.1,54.3,29.84,NNE,28,3.5,3.6,84,0.00,CLR,,0.00,WeatherDisplay:10.37,2013-06-07 12:55:00,
2013-06-07 08:01:00,59.4,54.6,29.84,NNE,17,3.5,3.5,84,0.00,CLR,,0.00,WeatherDisplay:10.37,2013-06-07 13:01:00,
2013-06-07 08:06:00,59.7,54.9,29.84,NNE,15,4.6,4.6,84,0.00,CLR,,0.00,WeatherDisplay:10.37,2013-06-07 13:06:00,
2013-06-07 08:11:00,59.9,55.1,29.84,NE,37,3.5,0.0,84,0.00,CLR,,0.00,WeatherDisplay:10.37,2013-06-07 13:11:00,
2013-06-07 08:16:00,60.2,55.3,29.84,North,360,3.5,3.5,84,0.00,CLR,,0.00,WeatherDisplay:10.37,2013-06-07 13:16:00,
2013-06-07 08:21:00,60.4,55.2,29.84,North,360,0.0,0.0,83,0.00,CLR,,0.00,WeatherDisplay:10.37,2013-06-07 13:21:00,
2013-06-07 08:26:00,60.8,55.9,29.84,North,360,0.0,0.0,84,0.00,CLR,,0.00,WeatherDisplay:10.37,2013-06-07 13:26:00,
2013-06-07 08:32:00,61.1,55.9,29.84,North,360,3.5,3.5,83,0.00,CLR,,0.00,WeatherDisplay:10.37,2013-06-07 13:32:00,
2013-06-07 08:37:00,61.3,56.1,29.84,NNE,14,4.6,4.6,83,0.00,CLR,,0.00,WeatherDisplay:10.37,2013-06-07 13:37:00,
2013-06-07 08:42:00,61.6,56.4,29.85,North,5,0.0,0.0,83,0.00,CLR,,0.00,WeatherDisplay:10.37,2013-06-07 13:42:00,
2013-06-07 08:47:00,62.0,56.4,29.85,NNE,22,5.8,5.8,82,0.00,CLR,,0.00,WeatherDisplay:10.37,2013-06-07 13:47:00,
2013-06-07 08:52:00,62.2,56.6,29.85,NNE,25,0.0,0.0,82,0.00,CLR,,0.00,WeatherDisplay:10.37,2013-06-07 13:52:00,
2013-06-07 08:57:00,62.5,56.9,29.85,NNE,25,0.0,0.0,82,0.00,CLR,,0.00,WeatherDisplay:10.37,2013-06-07 13:57:00,
2013-06-07 09:03:00,62.7,56.8,29.85,NNE,25,0.0,0.0,81,0.00,CLR,,0.00,WeatherDisplay:10.37,2013-06-07 14:03:00,
2013-06-07 09:08:00,62.9,57.0,29.85,NNE,15,3.5,3.5,81,0.00,CLR,,0.00,WeatherDisplay:10.37,2013-06-07 14:08:00,
2013-06-07 09:13:00,63.0,56.7,29.85,NNE,15,0.0,0.0,80,0.00,CLR,,0.00,WeatherDisplay:10.37,2013-06-07 14:13:00,
2013-06-07 09:18:00,63.2,57.3,29.85,NNE,15,0.0,0.0,81,0.00,CLR,,0.00,WeatherDisplay:10.37,2013-06-07 14:18:00,
2013-06-07 09:23:00,63.4,57.5,29.85,NNE,15,0.0,0.0,81,0.00,CLR,,0.00,WeatherDisplay:10.37,2013-06-07 14:23:00,
2013-06-07 09:28:00,63.5,57.2,29.85,NNE,15,0.0,0.0,80,0.00,CLR,,0.00,WeatherDisplay:10.37,2013-06-07 14:28:00,
2013-06-07 09:33:00,63.7,57.4,29.85,NNE,15,0.0,0.0,80,0.00,CLR,,0.00,WeatherDisplay:10.37,2013-06-07 14:33:00,
2013-06-07 09:38:00,63.8,57.5,29.85,NE,36,0.0,0.0,80,0.00,CLR,,0.00,WeatherDisplay:10.37,2013-06-07 14:38:00,
2013-06-07 09:44:00,63.9,57.6,29.85,NE,36,0.0,0.0,80,0.00,CLR,,0.00,WeatherDisplay:10.37,2013-06-07 14:44:00,
2013-06-07 09:49:00,64.0,57.7,29.85,NE,36,0.0,0.0,80,0.00,CLR,,0.00,WeatherDisplay:10.37,2013-06-07 14:49:00,
2013-06-07 09:54:00,64.1,57.8,29.85,NE,36,0.0,0.0,80,0.00,CLR,,0.00,WeatherDisplay:10.37,2013-06-07 14:54:00,
2013-06-07 09:59:00,64.3,57.6,29.85,NE,36,0.0,0.0,79,0.00,CLR,,0.00,WeatherDisplay:10.37,2013-06-07 14:59:00,
2013-06-07 10:04:00,64.4,57.7,29.85,NE,36,0.0,0.0,79,0.00,CLR,,0.00,WeatherDisplay:10.37,2013-06-07 15:04:00,
2013-06-07 10:09:00,64.6,57.9,29.85,NE,36,3.5,0.0,79,0.00,CLR,,0.00,WeatherDisplay:10.37,2013-06-07 15:09:00,
2013-06-07 10:15:00,64.7,58.0,29.85,NE,36,0.0,0.0,79,0.00,CLR,,0.00,WeatherDisplay:10.37,2013-06-07 15:15:00,
2013-06-07 10:20:00,64.8,57.8,29.85,NE,36,0.0,0.0,78,0.00,CLR,,0.00,WeatherDisplay:10.37,2013-06-07 15:20:00,
2013-06-07 10:25:00,64.9,57.9,29.85,ENE,71,1.2,0.0,78,0.00,CLR,,0.00,WeatherDisplay:10.37,2013-06-07 15:25:00,
2013-06-07 10:30:00,65.1,58.1,29.85,ENE,71,2.3,2.3,78,0.00,CLR,,0.00,WeatherDisplay:10.37,2013-06-07 15:30:00,
2013-06-07 10:35:00,65.1,58.1,29.85,ENE,71,0.0,0.0,78,0.00,CLR,,0.00,WeatherDisplay:10.37,2013-06-07 15:35:00,
2013-06-07 10:40:00,65.2,58.2,29.86,ENE,71,0.0,0.0,78,0.00,CLR,,0.00,WeatherDisplay:10.37,2013-06-07 15:40:00,
2013-06-07 10:46:00,65.3,57.9,29.86,East,82,0.0,0.0,77,0.00,CLR,,0.00,WeatherDisplay:10.37,2013-06-07 15:46:00,
2013-06-07 10:51:00,65.5,58.1,29.85,ENE,78,3.5,3.5,77,0.00,CLR,,0.00,WeatherDisplay:10.37,2013-06-07 15:51:00,
2013-06-07 10:56:00,65.7,58.3,29.86,East,82,2.3,2.3,77,0.00,CLR,,0.00,WeatherDisplay:10.37,2013-06-07 15:56:00,
2013-06-07 11:01:00,65.9,58.5,29.86,ENE,71,2.3,2.3,77,0.00,CLR,,0.00,WeatherDisplay:10.37,2013-06-07 16:01:00,
2013-06-07 11:06:00,66.1,58.7,29.86,ENE,71,1.2,1.2,77,0.00,CLR,,0.00,WeatherDisplay:10.37,2013-06-07 16:06:00,
2013-06-07 11:11:00,66.3,58.5,29.86,ENE,71,1.0,0.0,76,0.00,CLR,,0.00,WeatherDisplay:10.37,2013-06-07 16:11:00,
2013-06-07 11:16:00,66.2,58.4,29.86,ESE,103,3.5,3.5,76,0.00,CLR,,0.00,WeatherDisplay:10.37,2013-06-07 16:16:00,
2013-06-07 11:21:00,66.4,58.6,29.86,ESE,105,2.3,0.0,76,0.00,CLR,,0.00,WeatherDisplay:10.37,2013-06-07 16:21:00,
2013-06-07 11:27:00,66.7,58.9,29.86,East,91,3.5,3.5,76,0.00,CLR,,0.00,WeatherDisplay:10.37,2013-06-07 16:27:00,
2013-06-07 11:32:00,66.7,58.9,29.86,East,92,3.5,3.5,76,0.00,CLR,,0.00,WeatherDisplay:10.37,2013-06-07 16:32:00,
2013-06-07 11:37:00,66.9,58.7,29.86,East,92,0.0,0.0,75,0.00,CLR,,0.00,WeatherDisplay:10.37,2013-06-07 16:37:00,
2013-06-07 11:42:00,67.4,59.2,29.86,East,92,3.0,3.0,75,0.00,CLR,,0.00,WeatherDisplay:10.37,2013-06-07 16:42:00,
2013-06-07 11:47:00,67.6,59.0,29.86,East,92,0.0,0.0,74,0.00,CLR,,0.00,WeatherDisplay:10.37,2013-06-07 16:47:00,
2013-06-07 11:52:00,67.9,59.7,29.86,ENE,74,3.0,3.0,75,0.00,CLR,,0.00,WeatherDisplay:10.37,2013-06-07 16:52:00,
2013-06-07 11:57:00,67.8,59.2,29.86,ENE,74,3.5,3.5,74,0.00,CLR,,0.00,WeatherDisplay:10.37,2013-06-07 16:57:00,
2013-06-07 12:02:00,67.7,59.1,29.86,ENE,78,0.0,0.0,74,0.00,CLR,,0.00,WeatherDisplay:10.37,2013-06-07 17:02:00,
2013-06-07 12:08:00,68.1,59.5,29.86,ENE,78,0.0,0.0,74,0.00,CLR,,0.00,WeatherDisplay:10.37,2013-06-07 17:08:00,
2013-06-07 12:13:00,68.5,59.5,29.86,NNE,18,4.6,4.6,73,0.00,CLR,,0.00,WeatherDisplay:10.37,2013-06-07 17:13:00,
2013-06-07 12:18:00,68.4,59.4,29.85,ESE,109,1.2,0.0,73,0.00,CLR,,0.00,WeatherDisplay:10.37,2013-06-07 17:18:00,
2013-06-07 12:23:00,68.6,59.6,29.85,East,92,6.9,6.9,73,0.00,CLR,,0.00,WeatherDisplay:10.37,2013-06-07 17:23:00,
2013-06-07 12:28:00,68.8,59.8,29.85,East,93,0.0,0.0,73,0.00,CLR,,0.00,WeatherDisplay:10.37,2013-06-07 17:28:00,
2013-06-07 12:33:00,69.2,59.8,29.85,East,93,0.0,0.0,72,0.00,CLR,,0.00,WeatherDisplay:10.37,2013-06-07 17:33:00,
2013-06-07 12:39:00,69.3,59.9,29.85,East,93,0.0,0.0,72,0.00,CLR,,0.00,WeatherDisplay:10.37,2013-06-07 17:39:00,
2013-06-07 12:44:00,69.4,60.0,29.85,East,92,0.0,0.0,72,0.00,CLR,,0.00,WeatherDisplay:10.37,2013-06-07 17:44:00,
2013-06-07 12:49:00,69.6,59.8,29.85,East,97,0.0,0.0,71,0.00,CLR,,0.00,WeatherDisplay:10.37,2013-06-07 17:49:00,
2013-06-07 12:54:00,69.5,59.7,29.85,East,97,0.0,0.0,71,0.00,CLR,,0.00,WeatherDisplay:10.37,2013-06-07 17:54:00,
2013-06-07 12:59:00,69.2,59.4,29.85,East,91,0.0,0.0,71,0.00,CLR,,0.00,WeatherDisplay:10.37,2013-06-07 17:59:00,
2013-06-07 13:04:00,69.4,59.6,29.85,East,91,0.0,0.0,71,0.00,CLR,,0.00,WeatherDisplay:10.37,2013-06-07 18:04:00,
2013-06-07 13:09:00,69.6,60.2,29.85,ESE,111,3.5,3.5,72,0.00,CLR,,0.00,WeatherDisplay:10.37,2013-06-07 18:09:00,
2013-06-07 13:15:00,69.7,59.9,29.85,ESE,110,0.0,0.0,71,0.00,CLR,,0.00,WeatherDisplay:10.37,2013-06-07 18:15:00,
2013-06-07 13:20:00,69.8,60.0,29.84,ESE,111,0.0,0.0,71,0.00,CLR,,0.00,WeatherDisplay:10.37,2013-06-07 18:20:00,
2013-06-07 13:25:00,69.5,59.3,29.85,South,178,1.2,0.0,70,0.00,CLR,,0.00,WeatherDisplay:10.37,2013-06-07 18:25:00,
2013-06-07 13:30:00,69.4,59.6,29.85,South,175,3.5,3.5,71,0.00,CLR,,0.00,WeatherDisplay:10.37,2013-06-07 18:30:00,
2013-06-07 13:35:00,69.5,60.1,29.84,South,173,0.0,0.0,72,0.00,CLR,,0.00,WeatherDisplay:10.37,2013-06-07 18:35:00,
2013-06-07 13:41:00,69.6,59.8,29.85,SSE,163,1.2,1.2,71,0.00,CLR,,0.00,WeatherDisplay:10.37,2013-06-07 18:41:00,
2013-06-07 13:46:00,69.8,60.4,29.84,ESE,107,2.0,2.0,72,0.00,CLR,,0.00,WeatherDisplay:10.37,2013-06-07 18:46:00,
2013-06-07 13:52:00,69.6,59.4,29.84,SE,144,4.6,4.6,70,0.00,CLR,,0.00,WeatherDisplay:10.37,2013-06-07 18:52:00,
2013-06-07 13:58:00,69.3,59.5,29.84,South,169,3.5,3.5,71,0.00,CLR,,0.00,WeatherDisplay:10.37,2013-06-07 18:58:00,
2013-06-07 14:03:00,69.5,60.1,29.84,SSE,168,1.2,0.0,72,0.00,CLR,,0.00,WeatherDisplay:10.37,2013-06-07 19:03:00,
2013-06-07 14:08:00,69.3,59.9,29.84,SSE,157,4.6,4.6,72,0.00,CLR,,0.00,WeatherDisplay:10.37,2013-06-07 19:08:00,
2013-06-07 14:13:00,69.1,60.1,29.84,South,169,5.8,5.8,73,0.00,CLR,,0.00,WeatherDisplay:10.37,2013-06-07 19:13:00,
2013-06-07 14:19:00,68.7,60.1,29.84,South,184,3.5,3.5,74,0.00,CLR,,0.00,WeatherDisplay:10.37,2013-06-07 19:19:00,
2013-06-07 14:25:00,68.4,60.2,29.84,South,171,2.3,2.3,75,0.00,CLR,,0.00,WeatherDisplay:10.37,2013-06-07 19:25:00,
2013-06-07 14:30:00,68.3,60.4,29.84,South,172,0.0,0.0,76,0.00,CLR,,0.00,WeatherDisplay:10.37,2013-06-07 19:30:00,
2013-06-07 14:35:00,68.0,60.2,29.84,South,172,0.0,0.0,76,0.01,RA,,0.02,WeatherDisplay:10.37,2013-06-07 19:35:00,
2013-06-07 14:40:00,67.9,60.4,29.84,South,173,0.0,0.0,77,0.03,RA,,0.03,WeatherDisplay:10.37,2013-06-07 19:40:00,
2013-06-07 14:45:00,67.8,61.0,29.85,South,172,0.0,0.0,79,0.06,RA,,0.06,WeatherDisplay:10.37,2013-06-07 19:45:00,
2013-06-07 14:50:00,67.6,61.2,29.85,South,172,0.0,0.0,80,0.08,RA,,0.08,WeatherDisplay:10.37,2013-06-07 19:50:00,
2013-06-07 14:55:00,67.3,61.3,29.85,South,172,0.0,0.0,81,0.08,RA,,0.08,WeatherDisplay:10.37,2013-06-07 19:55:00,
2013-06-07 15:01:00,66.9,61.2,29.85,South,172,0.0,0.0,82,0.10,RA,,0.10,WeatherDisplay:10.37,2013-06-07 20:01:00,
2013-06-07 15:06:00,66.7,61.4,29.85,South,172,0.0,0.0,83,0.10,RA,,0.10,WeatherDisplay:10.37,2013-06-07 20:06:00,
2013-06-07 15:11:00,66.5,61.5,29.84,South,172,0.0,0.0,84,0.11,RA,,0.11,WeatherDisplay:10.37,2013-06-07 20:11:00,
2013-06-07 15:16:00,66.3,61.7,29.84,South,172,0.0,0.0,85,0.11,RA,,0.11,WeatherDisplay:10.37,2013-06-07 20:16:00,
2013-06-07 15:22:00,66.0,61.7,29.84,South,172,0.0,0.0,86,0.11,CLR,,0.11,WeatherDisplay:10.37,2013-06-07 20:22:00,
2013-06-07 15:28:00,65.6,61.3,29.84,South,172,0.0,0.0,86,0.11,CLR,,0.11,WeatherDisplay:10.37,2013-06-07 20:28:00,
2013-06-07 15:33:00,65.3,61.3,29.84,South,172,0.0,0.0,87,0.10,CLR,,0.11,WeatherDisplay:10.37,2013-06-07 20:33:00,
2013-06-07 15:39:00,65.4,61.4,29.84,South,172,0.0,0.0,87,0.08,CLR,,0.11,WeatherDisplay:10.37,2013-06-07 20:39:00,
2013-06-07 15:44:00,65.4,61.8,29.84,South,172,0.0,0.0,88,0.06,CLR,,0.11,WeatherDisplay:10.37,2013-06-07 20:44:00,
2013-06-07 15:49:00,65.3,61.7,29.84,South,173,3.5,3.5,88,0.03,CLR,,0.11,WeatherDisplay:10.37,2013-06-07 20:49:00,
2013-06-07 15:55:00,65.0,61.4,29.84,South,173,0.0,0.0,88,0.03,CLR,,0.11,WeatherDisplay:10.37,2013-06-07 20:55:00,
2013-06-07 16:00:00,64.8,61.2,29.84,South,173,3.5,3.5,88,0.02,CLR,,0.11,WeatherDisplay:10.37,2013-06-07 21:00:00,
2013-06-07 16:06:00,64.9,61.3,29.83,South,173,0.0,0.0,88,0.01,CLR,,0.11,WeatherDisplay:10.37,2013-06-07 21:06:00,
2013-06-07 16:11:00,64.9,61.3,29.83,South,173,0.0,0.0,88,0.00,CLR,,0.11,WeatherDisplay:10.37,2013-06-07 21:11:00,
2013-06-07 16:16:00,64.9,61.3,29.83,South,173,0.0,0.0,88,0.00,CLR,,0.11,WeatherDisplay:10.37,2013-06-07 21:16:00,
2013-06-07 16:21:00,65.0,61.7,29.83,South,173,0.0,0.0,89,0.00,CLR,,0.11,WeatherDisplay:10.37,2013-06-07 21:21:00,
2013-06-07 16:27:00,65.1,61.8,29.83,South,172,0.0,0.0,89,0.00,CLR,,0.11,WeatherDisplay:10.37,2013-06-07 21:27:00,
2013-06-07 16:32:00,64.9,61.3,29.83,South,173,0.0,0.0,88,0.00,CLR,,0.11,WeatherDisplay:10.37,2013-06-07 21:32:00,
2013-06-07 16:37:00,65.1,61.5,29.83,South,172,0.0,0.0,88,0.00,CLR,,0.11,WeatherDisplay:10.37,2013-06-07 21:37:00,
2013-06-07 16:43:00,65.3,62.0,29.83,South,173,0.0,0.0,89,0.00,CLR,,0.11,WeatherDisplay:10.37,2013-06-07 21:43:00,
2013-06-07 16:48:00,65.5,62.2,29.83,South,174,0.0,0.0,89,0.00,CLR,,0.11,WeatherDisplay:10.37,2013-06-07 21:48:00,
2013-06-07 16:53:00,65.5,61.9,29.83,South,174,0.0,0.0,88,0.00,CLR,,0.11,WeatherDisplay:10.37,2013-06-07 21:53:00,
2013-06-07 16:58:00,65.8,62.1,29.83,South,173,0.0,0.0,88,0.00,CLR,,0.11,WeatherDisplay:10.37,2013-06-07 21:58:00,
2013-06-07 17:03:00,65.8,62.1,29.83,South,174,0.0,0.0,88,0.00,CLR,,0.11,WeatherDisplay:10.37,2013-06-07 22:03:00,
2013-06-07 17:08:00,66.0,62.3,29.83,South,173,0.0,0.0,88,0.00,CLR,,0.11,WeatherDisplay:10.37,2013-06-07 22:08:00,
2013-06-07 17:13:00,66.0,62.3,29.83,South,173,0.0,0.0,88,0.00,CLR,,0.11,WeatherDisplay:10.37,2013-06-07 22:13:00,
2013-06-07 17:19:00,66.1,62.4,29.83,South,174,0.0,0.0,88,0.00,CLR,,0.11,WeatherDisplay:10.37,2013-06-07 22:19:00,
2013-06-07 17:24:00,66.3,62.3,29.83,South,173,0.0,0.0,87,0.00,CLR,,0.11,WeatherDisplay:10.37,2013-06-07 22:24:00,
2013-06-07 17:29:00,66.2,61.9,29.83,South,173,0.0,0.0,86,0.00,CLR,,0.11,WeatherDisplay:10.37,2013-06-07 22:29:00,
2013-06-07 17:34:00,66.4,62.1,29.83,South,174,0.0,0.0,86,0.00,CLR,,0.11,WeatherDisplay:10.37,2013-06-07 22:34:00,
2013-06-07 17:40:00,66.6,61.9,29.83,South,174,0.0,0.0,85,0.00,CLR,,0.11,WeatherDisplay:10.37,2013-06-07 22:40:00,
2013-06-07 17:45:00,66.7,62.0,29.83,South,173,0.0,0.0,85,0.00,CLR,,0.11,WeatherDisplay:10.37,2013-06-07 22:45:00,
2013-06-07 17:51:00,66.8,62.1,29.83,South,174,0.0,0.0,85,0.00,CLR,,0.11,WeatherDisplay:10.37,2013-06-07 22:51:00,
2013-06-07 17:57:00,66.7,61.7,29.83,South,174,0.0,0.0,84,0.00,CLR,,0.11,WeatherDisplay:10.37,2013-06-07 22:57:00,
2013-06-07 18:02:00,66.7,61.7,29.83,South,174,0.0,0.0,84,0.00,CLR,,0.11,WeatherDisplay:10.37,2013-06-07 23:02:00,
2013-06-07 18:07:00,66.8,61.8,29.83,South,174,0.0,0.0,84,0.00,CLR,,0.11,WeatherDisplay:10.37,2013-06-07 23:07:00,
2013-06-07 18:12:00,66.9,61.9,29.83,South,174,0.0,0.0,84,0.00,CLR,,0.11,WeatherDisplay:10.37,2013-06-07 23:12:00,
2013-06-07 18:17:00,66.9,62.2,29.83,South,173,0.0,0.0,85,0.00,CLR,,0.11,WeatherDisplay:10.37,2013-06-07 23:17:00,
2013-06-07 18:22:00,67.0,62.3,29.83,South,174,0.0,0.0,85,0.00,CLR,,0.11,WeatherDisplay:10.37,2013-06-07 23:22:00,
2013-06-07 18:28:00,67.0,62.3,29.83,South,174,0.0,0.0,85,0.00,CLR,,0.11,WeatherDisplay:10.37,2013-06-07 23:28:00,
2013-06-07 18:33:00,66.8,62.1,29.83,South,173,0.0,0.0,85,0.00,CLR,,0.11,WeatherDisplay:10.37,2013-06-07 23:33:00,
2013-06-07 18:38:00,66.7,62.0,29.83,South,174,0.0,0.0,85,0.00,CLR,,0.11,WeatherDisplay:10.37,2013-06-07 23:38:00,
2013-06-07 18:43:00,66.7,62.0,29.83,South,174,0.0,0.0,85,0.00,CLR,,0.11,WeatherDisplay:10.37,2013-06-07 23:43:00,
2013-06-07 18:49:00,66.7,62.0,29.83,South,174,0.0,0.0,85,0.00,CLR,,0.11,WeatherDisplay:10.37,2013-06-07 23:49:00,
2013-06-07 18:54:00,66.6,61.9,29.84,South,174,0.0,0.0,85,0.00,CLR,,0.11,WeatherDisplay:10.37,2013-06-07 23:54:00,
2013-06-07 18:59:00,66.5,61.8,29.84,South,173,0.0,0.0,85,0.00,CLR,,0.11,WeatherDisplay:10.37,2013-06-07 23:59:00,
2013-06-07 19:04:00,66.4,61.8,29.84,South,174,0.0,0.0,85,0.00,CLR,,0.11,WeatherDisplay:10.37,2013-06-08 00:04:00,
2013-06-07 19:09:00,66.3,61.7,29.84,South,174,0.0,0.0,85,0.00,CLR,,0.11,WeatherDisplay:10.37,2013-06-08 00:09:00,
2013-06-07 19:14:00,66.3,61.7,29.84,South,174,0.0,0.0,85,0.00,CLR,,0.11,WeatherDisplay:10.37,2013-06-08 00:14:00,
2013-06-07 19:19:00,66.3,61.7,29.85,South,174,0.0,0.0,85,0.00,CLR,,0.11,WeatherDisplay:10.37,2013-06-08 00:19:00,
2013-06-07 19:25:00,66.3,61.7,29.85,South,174,0.0,0.0,85,0.00,CLR,,0.11,WeatherDisplay:10.37,2013-06-08 00:25:00,
2013-06-07 19:30:00,66.3,62.0,29.85,South,173,0.0,0.0,86,0.00,CLR,,0.11,WeatherDisplay:10.37,2013-06-08 00:30:00,
2013-06-07 19:35:00,66.3,62.0,29.85,South,173,0.0,0.0,86,0.00,CLR,,0.11,WeatherDisplay:10.37,2013-06-08 00:35:00,
2013-06-07 19:40:00,66.3,62.0,29.85,South,173,0.0,0.0,86,0.00,CLR,,0.11,WeatherDisplay:10.37,2013-06-08 00:40:00,
2013-06-07 19:47:00,66.3,62.0,29.85,South,174,0.0,0.0,86,0.00,CLR,,0.11,WeatherDisplay:10.37,2013-06-08 00:47:00,
2013-06-07 19:52:00,66.2,61.9,29.85,South,173,0.0,0.0,86,0.00,CLR,,0.11,WeatherDisplay:10.37,2013-06-08 00:52:00,
2013-06-07 19:58:00,66.2,61.9,29.85,South,173,0.0,0.0,86,0.00,CLR,,0.11,WeatherDisplay:10.37,2013-06-08 00:58:00,
2013-06-07 20:04:00,66.2,61.9,29.85,South,174,0.0,0.0,86,0.00,CLR,,0.11,WeatherDisplay:10.37,2013-06-08 01:04:00,
2013-06-07 20:09:00,66.2,61.9,29.85,South,173,0.0,0.0,86,0.00,CLR,,0.11,WeatherDisplay:10.37,2013-06-08 01:09:00,
2013-06-07 20:14:00,66.2,61.9,29.85,South,173,0.0,0.0,86,0.00,CLR,,0.11,WeatherDisplay:10.37,2013-06-08 01:14:00,
2013-06-07 20:19:00,66.0,61.4,29.85,South,173,0.0,0.0,85,0.00,CLR,,0.11,WeatherDisplay:10.37,2013-06-08 01:19:00,
2013-06-07 20:24:00,65.9,61.6,29.85,South,175,0.0,0.0,86,0.00,CLR,,0.11,WeatherDisplay:10.37,2013-06-08 01:24:00,
2013-06-07 20:29:00,65.8,61.5,29.85,South,175,0.0,0.0,86,0.00,CLR,,0.11,WeatherDisplay:10.37,2013-06-08 01:29:00,
2013-06-07 20:34:00,65.7,61.4,29.86,South,175,0.0,0.0,86,0.00,CLR,,0.11,WeatherDisplay:10.37,2013-06-08 01:34:00,
2013-06-07 20:39:00,65.7,61.4,29.86,SSW,192,0.0,0.0,86,0.00,CLR,,0.11,WeatherDisplay:10.37,2013-06-08 01:39:00,
2013-06-07 20:45:00,65.6,61.3,29.86,SSW,192,0.0,0.0,86,0.00,CLR,,0.11,WeatherDisplay:10.37,2013-06-08 01:45:00,
2013-06-07 20:50:00,65.5,61.2,29.86,SSW,192,0.0,0.0,86,0.00,CLR,,0.11,WeatherDisplay:10.37,2013-06-08 01:50:00,
2013-06-07 20:56:00,65.4,61.1,29.86,South,191,0.0,0.0,86,0.00,CLR,,0.11,WeatherDisplay:10.37,2013-06-08 01:56:00,
2013-06-07 21:01:00,65.2,60.9,29.86,South,191,0.0,0.0,86,0.00,CLR,,0.11,WeatherDisplay:10.37,2013-06-08 02:01:00,
2013-06-07 21:06:00,65.0,60.7,29.86,South,191,0.0,0.0,86,0.00,CLR,,0.11,WeatherDisplay:10.37,2013-06-08 02:06:00,
2013-06-07 21:12:00,64.7,60.4,29.87,NNW,327,3.5,3.5,86,0.00,CLR,,0.11,WeatherDisplay:10.37,2013-06-08 02:12:00,
2013-06-07 21:17:00,64.5,60.2,29.87,NNW,329,1.2,0.0,86,0.00,CLR,,0.11,WeatherDisplay:10.37,2013-06-08 02:17:00,
2013-06-07 21:22:00,64.3,60.0,29.87,NNE,25,6.0,6.0,86,0.00,CLR,,0.11,WeatherDisplay:10.37,2013-06-08 02:22:00,
2013-06-07 21:27:00,64.0,59.4,29.87,NNE,23,4.6,4.6,85,0.00,CLR,,0.11,WeatherDisplay:10.37,2013-06-08 02:27:00,
2013-06-07 21:32:00,63.8,58.9,29.87,NNE,24,0.0,1.0,84,0.00,CLR,,0.11,WeatherDisplay:10.37,2013-06-08 02:32:00,
2013-06-07 21:38:00,63.5,58.2,29.88,NNE,24,3.5,3.5,83,0.00,CLR,,0.11,WeatherDisplay:10.37,2013-06-08 02:38:00,
2013-06-07 21:43:00,63.1,57.5,29.88,NNE,24,0.0,0.0,82,0.00,CLR,,0.11,WeatherDisplay:10.37,2013-06-08 02:43:00,
2013-06-07 21:48:00,62.7,56.8,29.88,NNE,17,0.0,0.0,81,0.00,CLR,,0.11,WeatherDisplay:10.37,2013-06-08 02:48:00,
2013-06-07 21:54:00,62.3,56.0,29.88,NNE,17,2.3,2.3,80,0.00,CLR,,0.11,WeatherDisplay:10.37,2013-06-08 02:54:00,
2013-06-07 21:59:00,61.9,55.3,29.88,NNE,17,0.0,0.0,79,0.00,CLR,,0.11,WeatherDisplay:10.37,2013-06-08 02:59:00,
2013-06-07 22:04:00,61.6,54.7,29.88,NE,34,0.0,1.9,78,0.00,CLR,,0.11,WeatherDisplay:10.37,2013-06-08 03:04:00,
2013-06-07 22:10:00,61.3,54.4,29.88,NE,49,2.3,0.0,78,0.00,CLR,,0.11,WeatherDisplay:10.37,2013-06-08 03:10:00,
2013-06-07 22:15:00,61.1,54.2,29.88,NNE,32,2.3,0.0,78,0.00,CLR,,0.11,WeatherDisplay:10.37,2013-06-08 03:15:00,
2013-06-07 22:20:00,60.8,53.9,29.89,NNE,31,2.0,2.0,78,0.00,CLR,,0.11,WeatherDisplay:10.37,2013-06-08 03:20:00,
2013-06-07 22:25:00,60.5,53.6,29.89,NNE,31,0.0,0.0,78,0.00,CLR,,0.11,WeatherDisplay:10.37,2013-06-08 03:25:00,
2013-06-07 22:31:00,60.3,53.4,29.89,NNE,31,0.0,0.0,78,0.00,CLR,,0.11,WeatherDisplay:10.37,2013-06-08 03:31:00,
2013-06-07 22:36:00,60.0,53.5,29.89,NNE,31,0.0,0.0,79,0.00,CLR,,0.11,WeatherDisplay:10.37,2013-06-08 03:36:00,
2013-06-07 22:41:00,59.8,53.3,29.89,NE,38,3.5,3.5,79,0.00,CLR,,0.11,WeatherDisplay:10.37,2013-06-08 03:41:00,
2013-06-07 22:46:00,59.5,53.0,29.89,NE,41,0.0,0.0,79,0.00,CLR,,0.11,WeatherDisplay:10.37,2013-06-08 03:46:00,
2013-06-07 22:51:00,59.3,52.8,29.89,NE,42,2.0,2.0,79,0.00,CLR,,0.11,WeatherDisplay:10.37,2013-06-08 03:51:00,
2013-06-07 22:56:00,59.0,52.5,29.89,NNE,29,1.2,1.2,79,0.00,CLR,,0.11,WeatherDisplay:10.37,2013-06-08 03:56:00,
2013-06-07 23:01:00,59.0,52.5,29.89,NNE,28,0.0,0.0,79,0.00,CLR,,0.11,WeatherDisplay:10.37,2013-06-08 04:01:00,
2013-06-07 23:07:00,59.0,52.5,29.89,NNE,28,0.0,0.0,79,0.00,CLR,,0.11,WeatherDisplay:10.37,2013-06-08 04:07:00,
2013-06-07 23:12:00,59.0,52.8,29.89,NNE,28,0.0,0.0,80,0.00,CLR,,0.11,WeatherDisplay:10.37,2013-06-08 04:12:00,
2013-06-07 23:17:00,58.7,52.5,29.88,NNE,29,2.3,2.3,80,0.00,CLR,,0.11,WeatherDisplay:10.37,2013-06-08 04:17:00,
2013-06-07 23:22:00,58.5,52.4,29.88,NNE,28,0.0,0.0,80,0.00,CLR,,0.11,WeatherDisplay:10.37,2013-06-08 04:22:00,
2013-06-07 23:27:00,58.3,52.2,29.89,NNE,28,0.0,0.0,80,0.00,CLR,,0.11,WeatherDisplay:10.37,2013-06-08 04:27:00,
2013-06-07 23:32:00,58.2,52.1,29.89,NNE,28,0.0,0.0,80,0.00,CLR,,0.11,WeatherDisplay:10.37,2013-06-08 04:32:00,
2013-06-07 23:37:00,58.0,51.9,29.89,NNE,28,0.0,0.0,80,0.00,CLR,,0.11,WeatherDisplay:10.37,2013-06-08 04:37:00,
2013-06-07 23:43:00,57.9,51.8,29.89,NNE,28,0.0,0.0,80,0.00,CLR,,0.11,WeatherDisplay:10.37,2013-06-08 04:43:00,
2013-06-07 23:48:00,57.8,51.7,29.89,NNE,28,0.0,0.0,80,0.00,CLR,,0.11,WeatherDisplay:10.37,2013-06-08 04:48:00,
2013-06-07 23:53:00,57.6,51.8,29.89,NNE,28,0.0,0.0,81,0.00,CLR,,0.11,WeatherDisplay:10.37,2013-06-08 04:53:00,
2013-06-07 23:58:00,57.4,51.3,29.89,NNE,28,0.0,0.0,80,0.00,CLR,,0.11,WeatherDisplay:10.37,2013-06-08 04:58:00,